Flag for U.S.A. Weather past 2 weeks in Greenville, South Carolina, U.S.A.

Now
73 °F

Partly sunny.


Feels Like: 75 °F
Forecast: 67 / 79 °F
Wind: No wind

Location: Greenville Downtown Airport

Current Time: Jun 2, 2015 at 11:46:03 AM

Latest Report: Jun 2, 2015 at 10:53 AM


Visibility: 10 mi

Pressure: 30.03 "Hg

Humidity: 69%

Dew point: 62 °F

Location of GreenvilleLocation

Historic Weather in Greenville — Graph

°F

Greenville temperature yesterday

Maximum temperature yesterday: 84 °F (at 3:53 PM)
Minimum temperature yesterday: 68 °F (at 3:53 AM)
Average temperature yesterday: 75 °F

Past Weeks' High & Low Weather Summary

 TemperatureHumidityPressure
High89 °F (May 18, 2:53 PM)94% (May 27, 5:53 AM)30.42 "Hg (May 27, 5:53 AM)
Low55 °F (May 22, 5:53 AM)22% (May 21, 3:53 PM)29.80 "Hg (May 21, 5:53 AM)
Average74 °F63%30.14 "Hg
* Reported May 18 10:53 AM — Jun 2 10:53 AM, Greenville, Weather by CustomWeather, © 2015

Note: Actual official high and low records may vary slightly from our data, if they occured in-between our weather recording intervals... More about our weather records

Advertising

Greenville weather history for previous 24 hours

 ConditionsComfort  
Time TempWeatherWind HumidityBarometerVisibility
10:53 AM
Tue, Jun 2
73 °FPartly sunny.No wind69%30.03 "Hg10 mi
9:53 AM71 °FBroken clouds.No wind73%30.03 "Hg10 mi
8:53 AM69 °FRain. Mostly cloudy.3 mph79%30.02 "Hg6 mi
7:53 AM68 °FPassing clouds.No wind82%30.01 "Hg10 mi
6:53 AM67 °FPassing clouds.5 mph85%30.01 "Hg10 mi
5:53 AM68 °FOvercast.No wind82%29.99 "Hg10 mi
4:53 AM68 °FPartly cloudy.No wind82%29.99 "Hg10 mi
3:53 AM69 °FMostly cloudy.3 mph76%29.99 "Hg10 mi
2:53 AM70 °FOvercast.No wind73%30.00 "Hg10 mi
1:53 AM70 °FMostly cloudy.No wind71%30.03 "Hg10 mi
12:53 AM70 °FOvercast.No wind68%30.03 "Hg10 mi
10:53 PM
Mon, Jun 1
70 °FPassing clouds.6 mph76%30.04 "Hg10 mi
9:53 PM71 °FOvercast.10 mph73%30.04 "Hg10 mi
8:53 PM78 °FPassing clouds.9 mph58%30.01 "Hg10 mi
7:53 PM79 °FSunny.9 mph54%29.98 "Hg10 mi
6:53 PM81 °FPassing clouds.12 mph58%29.98 "Hg10 mi
5:53 PM83 °FBroken clouds.10 mph50%29.97 "Hg10 mi
4:53 PM84 °FScattered clouds.10 mph48%29.98 "Hg10 mi
3:53 PM84 °FPassing clouds.12 mph51%29.99 "Hg10 mi
2:53 PM83 °FPassing clouds.9 mph53%30.02 "Hg10 mi
1:53 PM81 °FBroken clouds.6 mph58%30.06 "Hg10 mi
12:53 PM79 °FMostly cloudy.9 mph60%30.08 "Hg10 mi
11:53 AM77 °FCloudy.8 mph64%30.09 "Hg10 mi
Weather by CustomWeather, © 2015

See weather overviewHow to use our weather pages